This demonstration page uses our WeatherBlox Daily Observations layout. Learn more.

Left ArrowRight Arrow

Hourly Observations for May 28, 2022

Temp ( °F °C ) Dew Point ( °F °C ) Humidity (%) Winds ( mph kmh ) Pressure ( in mb ) Visibility ( mi km ) Precip ( " mm )
12:44 am 00:44 Cloudy with Light Rain 67 19.4 64 17.8 91 91 ESE 6 9 29.74 1007 4 6 0.01 0.25
12:51 am 00:51 Cloudy with Nearby Thunderstorms 66 18.9 64 17.8 93 93 E 6 9 29.74 1007 4 6 0.02 0.51
1:12 am 01:12 Cloudy with Strong Thunderstorms 66 18.9 64 17.8 93 93 SSE 7 11 29.75 1007 2 3 0.02 0.51
1:17 am 01:17 Cloudy with Strong Thunderstorms 65 18.3 64 17.8 97 97 ESE 5 7 29.74 1007 2 2 0.22 5.59
1:41 am 01:41 Cloudy with Strong Thunderstorms 65 18.3 63 17.2 93 93 VRB 3 6 29.73 1007 2 2 0.41 10.41
1:51 am 01:51 Cloudy with Strong Thunderstorms 65 18.3 63 17.2 93 93 NE 3 6 29.72 1006 2 2 0.42 10.67
1:55 am 01:55 Cloudy with Drizzle 65 18.3 63 17.2 93 93 E 3 6 29.72 1006 7 11 0.00 0.00
2:51 am 02:51 Cloudy 65 18.3 63 17.2 93 93 S 3 6 29.70 1006 5 8 0.00 0.00
3:51 am 03:51 Cloudy 65 18.3 63 17.2 93 93 Calm 29.68 1005 5 8 0.00 0.00
4:51 am 04:51 Cloudy 65 18.3 64 17.8 97 97 WSW 3 6 29.68 1005 5 8 0.00 0.00
5:51 am 05:51 Cloudy 66 18.9 64 17.8 93 93 WSW 10 17 29.69 1005 10 16 0.00 0.00
6:12 am 06:12 Cloudy 66 18.9 64 17.8 93 93 SW 6 9 29.70 1006 10 16 0.00 0.00
6:51 am 06:51 Cloudy 66 18.9 65 18.3 96 96 Calm 29.70 1006 10 16 0.00 0.00
7:51 am 07:51 Cloudy 68 20 65 18.3 90 90 SW 7 11 29.70 1006 10 16 0.00 0.00
8:12 am 08:12 Cloudy 68 20 66 18.9 93 93 S 5 7 29.70 1006 10 16 0.00 0.00
8:21 am 08:21 Cloudy 68 20 66 18.9 93 93 S 5 7 29.70 1006 10 16 0.00 0.00
8:51 am 08:51 Cloudy 69 20.6 67 19.4 93 93 SSW 6 9 29.70 1006 10 16 0.00 0.00
9:51 am 09:51 Mostly Cloudy 72 22.2 67 19.4 84 84 SSW 6 9 29.70 1006 10 16 0.00 0.00
10:51 am 10:51 Cloudy 72 22.2 64 17.8 76 76 VRB 3 6 29.70 1006 10 16 0.00 0.00
10:58 am 10:58 Mostly Cloudy 73 22.8 64 17.8 74 74 W 6 9 29.70 1006 10 16 0.00 0.00
11:26 am 11:26 Mostly Cloudy 74 23.3 65 18.3 74 74 VRB 3 6 29.69 1005 10 16 0.00 0.00
11:51 am 11:51 Mostly Cloudy 75 23.9 65 18.3 71 71 S 8 13 29.67 1005 10 16 0.00 0.00
11:59 am 11:59 Mostly Cloudy 75 23.9 64 17.8 69 69 S 12 19 29.68 1005 10 16 0.00 0.00
12:32 pm 12:32 Cloudy with Thunderstorms 73 22.8 63 17.2 71 71 WSW 9 15 29.70 1006 3 5 0.04 1.02
12:39 pm 12:39 Cloudy with Thunderstorms 64 18 61 16 88 88 WNW 15 24 29.72 1006 2 3 0.00 0.00
12:51 pm 12:51 Cloudy with Thunderstorms 62 16.7 59 15 90 90 NW 5 7 29.73 1007 3 4 0.17 4.32
12:58 pm 12:58 Cloudy with Thunderstorms 63 17.2 60 15.6 90 90 NW 3 6 29.74 1007 7 11 0.00 0.00
1:23 pm 13:23 Cloudy with Light Rain 64 17.8 61 16.1 90 90 WNW 12 19 29.72 1006 3 5 0.04 1.02
1:51 pm 13:51 Cloudy with Light Rain 67 19.4 62 16.7 84 84 WNW 9 15 29.72 1006 3 5 0.05 1.27
2:51 pm 14:51 Sunny 69 20.6 61 16.1 76 76 NW 9 15 29.73 1007 10 16 0.00 0.00
3:51 pm 15:51 Cloudy with Light Rain 67 19.4 62 16.7 84 84 WNW 6 9 29.75 1008 10 16 0.00 0.00
4:51 pm 16:51 Mostly Sunny 72 22.2 64 17.8 76 76 W 8 13 29.75 1007 10 16 0.00 0.00
5:51 pm 17:51 Mostly Sunny 73 22.8 63 17.2 71 71 W 5 7 29.75 1007 10 16 0.00 0.00
6:51 pm 18:51 Sunny 73 22.8 61 16.1 66 66 W 8 13 29.76 1008 10 16 0.00 0.00
7:51 pm 19:51 Sunny 71 21.7 61 16.1 71 71 W 7 11 29.79 1009 10 16 0.00 0.00
8:26 pm 20:26 Mostly Cloudy with Rain 67 19.4 61 16.1 81 81 VRB 3 6 29.81 1009 3 5 0.02 0.51
8:51 pm 20:51 Mostly Cloudy 68 20 63 17.2 84 84 NW 7 11 29.82 1010 10 16 0.03 0.76
9:51 pm 21:51 Mostly Cloudy 67 19.4 60 15.6 79 79 NW 7 11 29.85 1011 10 16 0.00 0.00
9:58 pm 21:58 Clear 67 19.4 60 15.6 79 79 NNW 6 9 29.86 1011 10 16 0.00 0.00
10:51 pm 22:51 Clear 65 18.3 59 15 81 81 Calm 29.88 1012 10 16 0.00 0.00
11:51 pm 23:51 Clear 64 17.8 58 14.4 81 81 Calm 29.91 1013 10 16 0.00 0.00

Powered by AerisWeather